Weather History for La Crosse, WI

Change the Weather History Date:

Thursday, April 10, 2014

  Actual Average Record
Temperature  
Mean Temperature 53 °F 46 °F  
Max Temperature 65 °F 57 °F 91 °F (1930)
Min Temperature 41 °F 36 °F 19 °F (1909)
Degree Days  
Heating Degree Days 12 19  
Month to date heating degree days 218 210  
Since 1 July heating degree days 7563 6663  
Cooling Degree Days 0 0  
Month to date cooling degree days 0 0  
Year to date cooling degree days 0 0  
Growing Degree Days 5 (Base 50)    
Moisture  
Dew Point 27 °F    
Average Humidity 38    
Maximum Humidity 61    
Minimum Humidity 15    
Precipitation  
Precipitation 0.00 in 0.11 in 1.42 in (2011)
Month to date precipitation 0.56 0.97  
Year to date precipitation 4.23 5.18  
Snow  
Snow 0.00 in 0.00 in 1.00 in (1914)
Month to date snowfall 0.6 0.8  
Since 1 July snowfall 47.2 42.4  
Snow Depth 0.00 in    
Sea Level Pressure  
Sea Level Pressure 29.76 in    
Wind  
Wind Speed 11 mph (WNW)    
Max Wind Speed 25 mph    
Max Gust Speed 30 mph    
Visibility 10 miles    
Events      
T = Trace of Precipitation, MM = Missing Value Source: NWS Daily Summary

Daily Weather History Graph

Daily Weather History Graph

Search for Another Location

Airport:

Trip Planner

Search our weather history database for the weather conditions in past years. The results will help you decide how hot, cold, wet, or windy it might be!

Date:

Astronomy

Apr. 10, 2014 Rise Set
Actual Time 6:30 AM CDT 7:42 PM CDT
Civil Twilight 6:00 AM CDT 8:12 PM CDT
Nautical Twilight 5:25 AM CDT 8:48 PM CDT
Astronomical Twilight 4:47 AM CDT 9:25 PM CDT
Moon 3:18 PM CDT (4/10) 4:02 AM CDT (4/10)
Length of Visible Light 14h 11m
Length of Day
13h 12m
Waxing Gibbous, 80% of the Moon is Illuminated
Apr 10
Waxing Gibbous
Apr 15
Full
Apr 22
Last Quarter
Apr 29
New
May 6
First Quarter

Hourly Weather History & Observations

Time (CDT) Temp. Dew Point Humidity Pressure Visibility Wind Dir Wind Speed Gust Speed Precip Events Conditions
12:53 AM 59.0 °F 34.0 °F 39% 29.56 in 10.0 mi South 18.4 mph 24.2 mph N/A   Clear
1:53 AM 60.1 °F 35.1 °F 39% 29.55 in 10.0 mi SSW 20.7 mph - N/A   Partly Cloudy
2:53 AM 60.1 °F 35.1 °F 39% 29.58 in 10.0 mi SW 10.4 mph - N/A   Mostly Cloudy
3:53 AM 57.9 °F 36.0 °F 44% 29.58 in 10.0 mi SW 6.9 mph - N/A   Clear
4:53 AM 54.0 °F 37.9 °F 55% 29.60 in 10.0 mi NW 8.1 mph - N/A   Clear
5:53 AM 50.0 °F 37.9 °F 63% 29.64 in 10.0 mi NNW 8.1 mph - N/A   Clear
6:53 AM 53.1 °F 35.1 °F 50% 29.66 in 10.0 mi NNW 8.1 mph - N/A   Clear
9:53 AM 54.0 °F 30.9 °F 41% 29.75 in 10.0 mi NW 12.7 mph - N/A   Clear
10:53 AM 55.9 °F 28.9 °F 36% 29.77 in 10.0 mi WNW 12.7 mph - N/A   Clear
11:53 AM 59.0 °F 23.0 °F 25% 29.77 in 10.0 mi NW 16.1 mph - N/A   Clear
12:53 PM 61.0 °F 21.9 °F 22% 29.77 in 10.0 mi NW 13.8 mph - N/A   Clear
1:53 PM 63.0 °F 19.9 °F 19% 29.77 in 10.0 mi NW 17.3 mph - N/A   Clear
2:53 PM 64.0 °F 19.9 °F 18% 29.78 in 10.0 mi NW 20.7 mph 27.6 mph N/A   Clear
3:53 PM 64.0 °F 16.0 °F 16% 29.78 in 10.0 mi NW 19.6 mph - N/A   Clear
4:53 PM 64.0 °F 17.1 °F 16% 29.80 in 10.0 mi NW 17.3 mph - N/A   Clear
5:53 PM 61.0 °F 19.0 °F 20% 29.83 in 10.0 mi NW 13.8 mph - N/A   Clear
6:53 PM 59.0 °F 19.9 °F 22% 29.86 in 10.0 mi NW 11.5 mph - N/A   Clear
7:53 PM 55.9 °F 19.9 °F 25% 29.87 in 10.0 mi WNW 12.7 mph - N/A   Clear
8:53 PM 52.0 °F 21.9 °F 31% 29.91 in 10.0 mi West 8.1 mph - N/A   Clear
9:53 PM 50.0 °F 24.1 °F 36% 29.93 in 10.0 mi WSW 6.9 mph - N/A   Clear
10:53 PM 46.9 °F 25.0 °F 42% 29.94 in 10.0 mi Calm Calm - N/A   Clear
11:53 PM 42.1 °F 27.0 °F 55% 29.96 in 10.0 mi Calm Calm - N/A   Clear